User: anonymous   Login
Location: Stamford Observatory
(41.1241°N, 73.5498°W)
Time: 21:55:28
(UTC-04:00)
Language:

IRS-P3 - Orbit

View from above orbital plane
View from above orbital plane
View from above satellite
View from above satellite

Ground track
Ground track

The orbit data is extracted from the following two-line orbital elements,

1 23827U 96017A   16148.83807832  .00000039  00000-0  37313-4 0  9997
2 23827  98.6905  85.2420 0004558  75.0025 285.1657 14.22453583 47623
Epoch (UTC): 27 May 2016 20:06:49
Eccentricity: 0.0004558
inclination: 98.6905°
perigee height: 814 km
apogee height: 820 km
right ascension of ascending node: 85.2420°
argument of perigee: 75.0025°
revolutions per day: 14.22453583
mean anomaly at epoch: 285.1657°
orbit number at epoch: 4762

The dashed part of the orbit path shows where the satellite is in the earth's shadow,  

DLR